Flag for France Weather past 2 weeks in Strasbourg, France

Now
57 °F

Clear.


Feels Like: 57 °F
Forecast: 63 / 79 °F
Wind: 3 mph from Northeast

Location: Strasbourg Airport

Current Time: Aug 3, 2015 at 7:05:41 AM

Latest Report: Aug 3, 2015 at 5:30 AM


Visibility: 10 mi

Pressure: 30.01 "Hg

Humidity: 82%

Dew point: 52 °F

Location of StrasbourgLocation

Historic Weather in Strasbourg — Graph

°F

Strasbourg temperature yesterday

Maximum temperature yesterday: 86 °F (at 4:00 PM)
Minimum temperature yesterday: 54 °F (at 4:00 AM)
Average temperature yesterday: 70 °F

Past Weeks' High & Low Weather Summary

 TemperatureHumidityPressure
High93 °F (Jul 21, 5:00 PM)94% (Jul 25, 4:00 AM)30.12 "Hg (Jul 25, 4:00 AM)
Low46 °F (Jul 31, 5:00 AM)29% (Jul 24, 4:30 PM)29.65 "Hg (Jul 24, 8:00 PM)
Average70 °F59%29.93 "Hg
* Reported Jul 19 5:00 AM — Aug 3 5:30 AM, Strasbourg, Weather by CustomWeather, © 2015

Note: Actual official high and low records may vary slightly from our data, if they occured in-between our weather recording intervals... More about our weather records

Advertising

Strasbourg weather history for previous 24 hours

 ConditionsComfort  
Time TempWeatherWind HumidityBarometerVisibility
5:30 AM
Mon, Aug 3
57 °FClear.3 mph82%30.01 "Hg10 mi
5:00 AM57 °FClear.1 mph82%30.01 "Hg10 mi
4:30 AM57 °FClear.3 mph82%30.01 "Hg10 mi
4:00 AM57 °FClear.2 mph82%30.01 "Hg10 mi
3:30 AM57 °FClear.1 mph88%30.01 "Hg10 mi
3:00 AM59 °FClear.2 mph82%30.01 "Hg10 mi
2:30 AM59 °FClear.1 mph82%30.04 "Hg10 mi
2:00 AM61 °FClear.2 mph77%30.04 "Hg10 mi
1:30 AM63 °FClear.2 mph73%30.04 "Hg10 mi
1:00 AM63 °FClear.2 mph77%30.04 "Hg10 mi
12:30 AM64 °FClear.No wind68%30.04 "Hg10 mi
12:00 AM64 °FClear.5 mph68%30.04 "Hg10 mi
11:30 PM
Sun, Aug 2
68 °FClear.2 mph60%30.04 "Hg10 mi
11:00 PM68 °FClear.1 mph64%30.01 "Hg10 mi
10:30 PM70 °FClear.1 mph57%30.01 "Hg10 mi
10:00 PM72 °FSunny.2 mph57%30.01 "Hg10 mi
9:30 PM73 °FSunny.3 mph50%30.01 "Hg10 mi
9:00 PM79 °FSunny.5 mph39%30.01 "Hg10 mi
8:30 PM81 °FSunny.6 mph37%30.01 "Hg10 mi
8:00 PM82 °FPassing clouds.6 mph35%30.01 "HgN/A
7:30 PM84 °FPassing clouds.7 mph35%30.01 "HgN/A
7:00 PM84 °FPassing clouds.6 mph35%30.01 "HgN/A
6:30 PM86 °FSunny.3 mph33%30.01 "Hg10 mi
6:00 PM86 °FPassing clouds.6 mph33%30.01 "HgN/A
5:30 PM86 °FSunny.5 mph31%30.04 "Hg10 mi
5:00 PM86 °FSunny.6 mph31%30.04 "Hg10 mi
4:30 PM86 °FPassing clouds.6 mph33%30.04 "HgN/A
4:00 PM86 °FSunny.3 mph31%30.04 "Hg10 mi
3:30 PM84 °FPassing clouds.6 mph35%30.07 "HgN/A
3:00 PM84 °FSunny.6 mph35%30.07 "Hg10 mi
2:30 PM82 °FPassing clouds.6 mph37%30.07 "HgN/A
2:00 PM82 °FSunny.5 mph35%30.07 "Hg10 mi
1:30 PM81 °FSunny.2 mph37%30.09 "Hg10 mi
1:00 PM79 °FSunny.6 mph42%30.09 "Hg10 mi
12:30 PM77 °FSunny.2 mph44%30.09 "Hg10 mi
12:00 PM75 °FSunny.3 mph50%30.09 "Hg10 mi
11:30 AM75 °FSunny.5 mph50%30.09 "Hg10 mi
11:00 AM73 °FSunny.3 mph53%30.12 "Hg10 mi
10:30 AM72 °FPassing clouds.3 mph57%30.12 "HgN/A
10:00 AM70 °FSunny.2 mph60%30.12 "Hg10 mi
9:30 AM68 °FSunny.No wind64%30.12 "Hg10 mi
9:00 AM64 °FSunny.No wind73%30.12 "Hg10 mi
8:30 AM63 °FSunny.2 mph77%30.12 "Hg10 mi
8:00 AM61 °FSunny.3 mph83%30.09 "Hg10 mi
7:30 AM59 °FClear.1 mph88%30.09 "Hg5 mi
7:00 AM55 °FFog.2 mph94%30.09 "Hg2 mi
Weather by CustomWeather, © 2015

See weather overviewHow to use our weather pages